Location: ??????
(38.0131°N, 23.7723°E)
Time: 06:03:41
(UTC+00:00)

Feng Yun 1-1 Rocket - Pass Details

Date: 17 October 2021
Orbit: 830 x 933 km, 99.2° (Epoch: 28 November)

Event Time Altitude Azimuth Distance (km) Brightness Sun altitude
Rises 16:57:20 0° 160° (SSE) 3,379 7.1 -15.1°
Reaches altitude 10° 16:59:39 10° 159° (SSE) 2,458 6.4 -15.6°
Maximum altitude 17:05:06 76° 74° (ENE) 886 4.1 -16.6°
Drops below altitude 10° 17:10:43 10° 349° (N) 2,536 6.8 -17.7°
Sets 17:13:08 0° 348° (NNW) 3,494 7.6 -18.2°
